This is the latest recevied weather packets stored in our database for station/object KD4MBW. If no packets are shown the sender has not sent any weather packets the latest 10 day(s).
| Time | Temp. | Humidity | Pressure | Rain* | Wind** | Luminosity | Snow |
|---|---|---|---|---|---|---|---|
| 1777701910 | 13.89° C | 99% | 1011 hPa | 0 mm | - | 0 W/m² | - |
| 1777701608 | 13.89° C | 99% | 1011.2 hPa | 0 mm | - | 0 W/m² | - |
| 1777701305 | 13.89° C | 99% | 1011.7 hPa | 0 mm | - | 0 W/m² | - |
| 1777701004 | 13.89° C | 99% | 1011.6 hPa | 0 mm | - | 0 W/m² | - |
| 1777700702 | 14.44° C | 99% | 1011.9 hPa | 1.78 mm | - | 0 W/m² | - |
| 1777700399 | 14.44° C | 99% | 1011.7 hPa | 3.05 mm | - | 0 W/m² | - |
| 1777700096 | 14.44° C | 99% | 1011.6 hPa | 4.32 mm | - | 0 W/m² | - |
| 1777699794 | 14.44° C | 99% | 1012.3 hPa | 10.67 mm | - | 0 W/m² | - |
| 1777699491 | 15° C | 99% | 1012.7 hPa | 6.1 mm | - | 0 W/m² | - |
| 1777699190 | 15° C | 99% | 1013 hPa | 1.27 mm | - | 0 W/m² | - |
| 1777698887 | 15° C | 99% | 1012.8 hPa | 3.05 mm | - | 0 W/m² | - |
| 1777698584 | 15° C | 99% | 1012.9 hPa | 1.78 mm | - | 0 W/m² | - |
| 1777698281 | 15° C | 99% | 1013.1 hPa | 1.78 mm | - | 0 W/m² | - |
| 1777697978 | 15° C | 99% | 1013 hPa | 3.05 mm | - | 0 W/m² | - |
| 1777697674 | 15° C | 99% | 1013 hPa | 1.27 mm | - | 0 W/m² | - |
| 1777697372 | 15.56° C | 99% | 1013.4 hPa | 0 mm | - | 0 W/m² | - |
| 1777697067 | 15.56° C | 99% | 1013.4 hPa | 0 mm | - | 0 W/m² | - |
| 1777696764 | 15.56° C | 99% | 1013.2 hPa | 0 mm | - | 0 W/m² | - |
| 1777696462 | 15.56° C | 99% | 1013.4 hPa | 0 mm | - | 0 W/m² | - |
| 1777696161 | 15.56° C | 99% | 1013.2 hPa | 0 mm | - | 0 W/m² | - |
| 1777695859 | 15.56° C | 99% | 1013.2 hPa | 0 mm | - | 0 W/m² | - |
| 1777695556 | 15.56° C | 99% | 1013.1 hPa | 0 mm | - | 0 W/m² | - |
| 1777695254 | 15.56° C | 99% | 1012.8 hPa | 0 mm | - | 0 W/m² | - |
| 1777694951 | 16.11° C | 99% | 1012.6 hPa | 0 mm | - | 0 W/m² | - |
| 1777694647 | 16.11° C | 99% | 1012.7 hPa | 0 mm | - | 0 W/m² | - |
* Rain latest hour (hover to see other rain measurements)
** Current wind speed in m/s (hover to see current wind gust speed)